Location: Bannatyne
(13.0833°N, 59.5333°W)
Time: 14:11:06
(UTC+00:00)

Vanguard 3 - Pass Details

Date: 01 February 2020
Orbit: 508 x 3263 km, 33.3° (Epoch: 22 February)

Event Time Altitude Azimuth Distance (km) Brightness Sun altitude
Rises 04:16:10 0° 290° (WNW) 6,170 - -85.7°
Reaches altitude 10° 04:21:31 10° 282° (WNW) 4,675 - -85.2°
Maximum altitude 04:31:18 29° 228° (SW) 2,436 - -83.7°
Drops below altitude 10° 04:37:31 10° 169° (S) 2,890 - -82.5°
Sets 04:40:02 0° 156° (SSE) 3,548 - -82.0°
